📊 Raw Sensor Data

Showing records 43151 to 43175 of 85,012 total

ID Distance (ft) Battery V Battery A Int Temp (°F) Int Humid (%) Ext Temp (°F) Solar V RSSI SNR Time Stamp
41874 15.7 3.92 0 56 41 61 4.50 -72 8 05/28/2025 06:53 AM
41873 15.6 3.91 8 55 41 60 4.50 -73 8 05/28/2025 06:46 AM
41872 15.6 3.90 0 53 42 58 4.50 -73 8 05/28/2025 06:30 AM
41871 15.5 3.81 0 52 42 55 4.50 -72 8 05/28/2025 06:15 AM
41870 15.5 3.88 -7 51 42 53 4.50 -73 8 05/28/2025 06:00 AM
41869 15.5 3.82 -10 51 42 52 2.20 -72 8 05/28/2025 05:45 AM
41868 15.5 3.89 -5 51 42 52 0.50 -72 7 05/28/2025 05:30 AM
41867 15.5 3.75 -5 51 42 52 0.10 -72 7 05/28/2025 05:15 AM
41866 15.5 3.76 -5 51 42 53 0.00 -73 8 05/28/2025 05:00 AM
41865 15.5 3.88 -5 51 42 53 0.00 -72 8 05/28/2025 04:45 AM
41864 15.5 3.77 -5 51 42 53 0.00 -72 8 05/28/2025 04:30 AM
41863 15.5 3.77 -5 51 43 53 0.00 -72 8 05/28/2025 04:15 AM
41862 15.5 3.75 -5 51 43 53 0.00 -74 7 05/28/2025 04:00 AM
41861 15.5 3.75 -5 51 43 53 0.10 -71 8 05/28/2025 03:45 AM
41860 15.5 3.88 -5 51 43 52 0.00 -72 8 05/28/2025 03:30 AM
41859 15.5 3.75 -5 51 43 53 0.00 -71 8 05/28/2025 03:15 AM
41858 15.5 3.88 -5 51 43 52 0.00 -72 8 05/28/2025 03:00 AM
41857 15.5 3.75 -5 51 44 52 0.00 -72 9 05/28/2025 02:45 AM
41856 15.5 3.75 -5 52 43 53 0.00 -72 8 05/28/2025 02:30 AM
41855 15.5 3.75 -5 53 43 54 0.00 -72 8 05/28/2025 02:15 AM
41854 15.5 3.88 -5 53 44 54 0.00 -74 8 05/28/2025 02:00 AM
41853 15.5 3.74 -5 54 44 54 0.00 -73 8 05/28/2025 01:45 AM
41852 15.5 3.76 -5 54 44 55 0.00 -74 8 05/28/2025 01:30 AM
41851 15.5 3.88 -5 55 44 56 0.00 -72 8 05/28/2025 01:15 AM
41850 15.5 3.88 -5 55 44 56 0.00 -73 8 05/28/2025 01:00 AM